Regional Weather Roundup
Issued by NWS

Home | Current Version | Previous Version | Text Only | Print | Product List | Glossary On
Versions: 1 2 3 4 5 6 7 8 9 10 11 12 13 14 15 16 17 18 19 20 21 22 23 24 25 26 27 28 29 30 31 32 33 34 35 36 37 38 39 40 41 42 43 44 45 46 47 48 49 50
000
ASUS43 KLMK 271902
RWRKY
KENTUCKY REGIONAL WEATHER ROUNDUP
NATIONAL WEATHER SERVICE LOUISVILLE KY
300 PM EDT SAT MAY 27 2017

NOTE "FAIR" INDICATES FEW OR NO CLOUDS BELOW 12,000 FEET
WITH NO SIGNIFICANT WEATHER AND/OR OBSTRUCTIONS TO VISIBILITY.

KYZ001>023-026-027-061>063-070>075-272000-
WESTERN AND SOUTH CENTRAL KENTUCKY

CITY           SKY/WX    TMP DP  RH WIND       PRES   REMARKS
PADUCAH        PTSUNNY   84  70  62 SW9       29.87F
HENDERSON      PTSUNNY   86  71  60 W15       29.86F HX  91
OWENSBORO      PTSUNNY   85  71  63 SW12G18   29.85F HX  90
HOPKINSVILLE   MOSUNNY   83  72  68 SW15      29.89F
BOWLING GREEN  MOSUNNY   83  71  67 SW9       29.91F
GLASGOW        NOT AVBL
$$

KYZ024-025-028>034-038-045-046-053-272000-
NORTH CENTRAL KENTUCKY

CITY           SKY/WX    TMP DP  RH WIND       PRES   REMARKS
LOUISVILLE/SDF TSTM      84  71  65 W12       29.87S
LOUISVILLE/LOU TSTM      82  70  66 SW13      29.87F
FORT KNOX      MOSUNNY   83  70  63 W8        29.86F
$$

KYZ035>037-039>044-047>052-055>060-089>105-272000-
NORTHEAST KENTUCKY

CITY           SKY/WX    TMP DP  RH WIND       PRES   REMARKS
LEXINGTON      MOSUNNY   81  67  62 SW8       29.90F
COVINGTON      MOSUNNY   81  69  67 S9        29.88F
FRANKFORT      MOSUNNY   83  69  62 SW9       29.88F
$$

KYZ054-064>069-076>088-106>120-272000-
SOUTHEAST KENTUCKY

CITY           SKY/WX    TMP DP  RH WIND       PRES   REMARKS
JACKSON        CLOUDY    80  68  66 VRB3      29.93F
LONDON         PTSUNNY   81  66  60 SW7       29.94F
SOMERSET       CLOUDY    79  66  65 W13       29.94S
MIDDLESBORO    PTSUNNY   80  67  65 S8        29.95F
MONTICELLO     PTCLDY    78  69  73 SW21      29.96R
$$





USA.gov is the U.S. government's official web portal to all federal, state and local government web resources and services.